Location: Cerbedi�res
(48.2182°N, 1.4849°W)
Time: 07:24:42
(UTC+00:00)

Okean-O - Pass Details

Date: 03 March 2021
Orbit: 639 x 640 km, 98.2° (Epoch: 12 April)

Event Time Altitude Azimuth Distance (km) Brightness Sun altitude
Rises 18:22:19 0° 153° (SSE) 2,935 5.8 -5.6°
Reaches altitude 10° 18:24:32 10° 149° (SSE) 2,030 4.9 -6.0°
Maximum altitude 18:28:52 56° 71° (ENE) 763 2.7 -6.7°
Drops below altitude 10° 18:33:14 10° 354° (N) 2,045 5.3 -7.4°
Sets 18:35:28 0° 350° (N) 2,959 6.2 -7.8°
